Location: Northcutt
(34.7304°N, 84.4305°W)
Time: 04:32:34
(UTC+00:00)

Vanguard 2 - Pass Details

Date: 04 October 2022
Orbit: 553 x 2933 km, 32.9° (Epoch: 04 December)

Event Time Altitude Azimuth Distance (km) Brightness Sun altitude
Rises 23:32:26 0° 284° (WNW) 6,153 14.0 -3.9°
Reaches altitude 10° 23:36:18 10° 279° (W) 5,360 13.5 -4.7°
Maximum altitude 23:52:22 53° 210° (SSW) 3,395 11.0 -8.0°
Drops below altitude 10° 00:08:23 10° 139° (SE) 5,322 11.4 -11.3°
Sets 00:12:15 0° 135° (SE) 6,106 11.7 -12.1°
